#timestamp,LO_Frequency,Hit,StdDev 
1640836815.1,286046993.7,N
1640836816.0,286046993.7,N
1640836835.8,286046998.0,N
1640836855.7,286046994.3,N
1640836875.5,286046993.3,N
1640836895.3,286046999.1,N
1640836915.2,286047003.6,N
1640836935.0,286047001.3,N
1640836935.9,286047001.3,N
1640836955.7,286046994.6,N
1640836975.6,286046997.7,N
1640836995.4,286046999.2,N
1640837015.3,286047005.7,N
1640837035.1,286047003.2,N
1640837055.8,286047002.9,N
1640837075.7,286047001.4,N
1640837095.5,286047019.7,Y
1640837115.4,286047024.9,P
1640837135.2,286047025.8,N
1640837155.0,286047003.5,N
1640837155.9,286047003.5,N
1640837175.8,286047002.4,N
1640837195.6,286046998.6,N
1640837215.4,286046999.0,N
1640837235.3,286046999.2,N
1640837255.1,286046992.1,N
1640837275.9,286046993.0,N
1640837295.7,286046995.6,N
1640837315.5,286047000.0,N
1640837335.4,286047002.7,N
1640837355.2,286047002.6,N
1640837375.0,286047002.4,N
1640837376.0,286047002.4,N
1640837395.8,286047000.6,N
1640837415.6,286047002.6,N
1640837435.5,286047003.3,N
1640837455.3,286047000.4,N
1640837475.1,286047003.2,N
1640837495.9,286047002.1,N
1640837515.7,286046998.4,N
1640837535.6,286046998.5,N
1640837555.4,286046998.3,N
1640837575.2,286047004.9,N
1640837595.1,286047001.4,N
1640837596.0,286047001.4,N
1640837615.8,286047003.6,N
1640837635.6,286047002.2,N
1640837655.5,286047002.2,N
1640837675.3,286047011.9,N
1640837695.2,286046998.9,N
1640837715.9,286046998.6,N
1640837735.7,286047000.3,N
1640837755.6,286046999.8,N
1640837775.4,286047001.6,N
1640837795.2,286047000.6,N
1640837815.1,286046999.4,N
1640837816.0,286046999.4,N
1640837835.8,286046996.6,N
1640837855.7,286046997.1,N
1640837875.5,286046997.8,N
1640837895.3,286046994.5,N
1640837915.2,286046995.9,N
1640837935.9,286047007.8,N
1640837955.7,286046997.5,N
1640837975.6,286046996.7,N
1640837995.4,286047000.7,N
1640838015.3,286046998.1,N
1640838035.1,286047000.4,N
1640838036.0,286047000.4,N
1640838055.8,286047002.1,N
1640838075.7,286046999.3,N
1640838095.5,286046997.2,N
1640838115.3,286046998.1,N
1640838135.2,286046995.7,N
1640838155.0,286046994.1,N
1640838155.9,286046994.1,N
1640838175.8,286046994.5,N
1640838195.6,286046990.7,N
1640838215.5,286046987.6,Y
1640838235.3,286046990.2,P
1640838255.1,286046996.5,N
1640838275.9,286046997.1,N
1640838295.7,286046994.1,N
1640838315.6,286046991.7,N
1640838335.4,286046993.4,N
1640838355.3,286046995.1,N
1640838375.1,286046993.8,N
1640838376.0,286046993.8,N
1640838395.8,286046991.4,Y
1640838415.7,286046990.5,P
1640838435.5,286046992.8,P
1640838455.3,286046993.4,P
1640838475.2,286046996.4,N
1640838495.0,286046996.9,N
1640838495.9,286046996.9,N
1640838515.8,286047000.2,N
1640838535.6,286046998.5,N
1640838555.4,286047002.2,N
1640838575.3,286047003.1,N
1640838595.1,286047004.8,N
1640838615.9,286047007.2,N
1640838635.7,286047008.8,N
1640838655.5,286047006.1,N
1640838675.4,286047001.7,N
1640838695.2,286047002.0,N
1640838715.0,286047003.8,N
1640838716.0,286047003.8,N
1640838735.8,286047004.9,N
1640838755.6,286047008.4,N
1640838775.5,286047008.8,N
1640838795.3,286047005.1,N
1640838815.1,286047004.1,N
1640838835.9,286047003.4,N
1640838855.7,286047007.6,N
1640838875.6,286047003.5,N
1640838895.4,286047004.3,N
1640838915.2,286047005.8,N
1640838935.1,286047000.5,N
1640838936.0,286047000.5,N
1640838955.8,286046999.4,N
1640838975.7,286047000.3,N
1640838995.5,286047000.2,N
1640839015.3,286047001.7,N
1640839035.2,286047006.0,N
1640839055.0,286047002.0,N
1640839055.9,286047002.0,N
1640839075.7,286047000.5,N
1640839095.6,286047002.7,N
1640839115.4,286046999.7,N
1640839135.3,286047001.9,N
1640839155.1,286047002.9,N
1640839156.0,286047002.9,N
1640839175.8,286047003.3,N
1640839195.7,286046998.2,N
1640839215.5,286046998.2,N
1640839235.3,286046996.6,N
1640839255.2,286047007.6,N
1640839275.0,286047003.6,N
1640839275.9,286047003.6,N
1640839295.8,286047006.9,N
1640839315.6,286047004.8,N
1640839335.4,286047003.4,N
1640839355.3,286047005.4,N
1640839375.1,286047006.8,N
1640839395.8,286047000.4,N
1640839415.7,286046999.7,N
1640839435.5,286046999.3,N
1640839455.4,286046995.4,N
1640839475.2,286046995.3,N
1640839495.0,286046997.1,N
1640839495.9,286046997.1,N
1640839515.8,286046996.9,N
1640839535.6,286046997.1,N
1640839555.4,286046998.9,N
1640839575.3,286047000.5,N
1640839595.1,286047001.0,N
1640839615.9,286046998.3,N
1640839635.7,286046996.5,N
1640839655.5,286047000.6,N
1640839675.4,286046998.4,N
1640839695.2,286047002.3,N
1640839715.1,286047006.9,N
1640839716.0,286047006.9,N
1640839735.8,286047005.3,N
1640839755.6,286046996.7,N
1640839775.5,286047004.2,N
1640839795.3,286047001.7,N
1640839815.1,286047001.1,N
1640839835.9,286046997.2,N
1640839855.7,286046999.3,N
1640839875.6,286047002.2,N
1640839895.4,286046994.0,N
1640839915.2,286046992.7,N
1640839935.1,286046979.2,Y
1640839955.1,286046988.8,P
1640839956.0,286046988.8,N
1640839975.8,286046994.3,N
1640839995.7,286046997.8,N
1640840015.0,286046996.6,N
1640840015.9,286046996.6,N
1640840035.7,286046993.0,N
1640840055.6,286046992.7,N
1640840075.4,286046996.0,N
1640840095.3,286046990.1,N
1640840115.1,286046991.6,N
1640840116.0,286046991.6,N
1640840135.8,286046991.4,N
1640840155.7,286046990.1,Y
1640840175.5,286046995.5,P
1640840195.4,286046996.2,P
1640840215.2,286046995.9,P
1640840235.0,286046997.6,N
1640840235.9,286046997.6,N
1640840255.8,286046997.0,N
1640840275.6,286046999.5,N
1640840295.4,286047000.5,N
1640840315.3,286046996.8,N
1640840335.1,286047001.2,N
1640840355.9,286046995.3,N
1640840375.7,286046997.6,N
1640840395.5,286046995.8,N
